[[{"header":{"parameterUnit":"m.s-1","parameterCategory":1,"la1":30.2991,"la2":30.254,"lo1":-89.0895,"lo2":-89.0444,"dy":0.0017,"dx":0.0017,"nx":28,"ny":28,"refTime":"2024-05-05T21:00:00:Z","depth":0,"parameterNumber":2,"parameterNumberName":"U-component_of_WINDS"},"data":[0,0,0,0,0,0,0,0,0,0,0,0,0,0,0,0,0,0,0,0,0,0,0,0,0,0,0,0,0,0,0,0,0,0,0,0,0,0,0,0,0,0,0,0,0,0,0,0,0,0,0,0,0,0,0,0,0,0,0.3196,0.3195,0,0.3134,0.3133,0.3133,0.3097,0.3097,0.3097,0.3097,0.3032,0.303,0.3029,0,0,0,0,0,0,0,0,0,0,0,0,0,0.328,0.3279,0.3196,0.3195,0.3194,0.3134,0.3133,0.3132,0.3097,0.3097,0.3097,0.3097,0.3032,0.303,0.3028,0,0,0,0,0,0,0,0,0,0,0,0,0,0.3233,0.3278,0.3196,0.317,0.3167,0.3134,0.3133,0.3132,0.3097,0.3097,0.3097,0.3096,0.3033,0.303,0.3028,0.3017,0,0,0.3021,0.302,0,0,0,0,0,0,0,0,0.3236,0.323,0.3174,0.3171,0.3168,0.3123,0.3139,0.3094,0.3097,0.3123,0.3097,0.3096,0.3062,0.3057,0.3046,0.3014,0.3011,0.3021,0.3019,0.3018,0.3017,0,0,0,0,0,0,0,0.3239,0.3233,0.3171,0.3173,0.317,0.3159,0.3153,0.313,0.3095,0.3121,0.3118,0.3112,0.306,0.3049,0.3044,0.301,0.3021,0.3018,0.3017,0.3016,0.2963,0.2963,0,0,0,0,0,0,0.3247,0.3236,0.3173,0.317,0.3202,0.3158,0.315,0.3138,0.3095,0.3088,0.3112,0.311,0.3053,0.3047,0.3042,0.3024,0.3018,0.3016,0.3014,0.2963,0.2963,0.2963,0,0,0,0,0,0,0.3249,0.3242,0.3176,0.3202,0.3193,0.3157,0.3143,0.3137,0.3125,0.3088,0.3081,0.3106,0.3052,0.3045,0.3023,0.3022,0.3015,0.3013,0.2963,0.2963,0.2963,0.299,0,0,0,0,0,0,0.3252,0.3243,0.3239,0.3202,0.3191,0.3159,0.3143,0.3135,0.3121,0.3118,0.3081,0.3075,0.3052,0.3027,0.3021,0.3018,0.3011,0.2963,0.2963,0.2963,0.2989,0.2991,0.2993,0,0,0,0,0,0.3255,0.325,0.3239,0.3232,0.3186,0.3159,0.3153,0.3127,0.3121,0.3116,0.3092,0.3076,0.3023,0.3025,0.3018,0.3014,0.2963,0.2963,0.2963,0.2989,0.2991,0.2993,0,0,0,0,0,0,0.3288,0.3245,0.3233,0.3216,0.3191,0.3153,0.3147,0.3131,0.3108,0.3106,0.3074,0.3066,0.3047,0.3028,0.3031,0.3,0.2991,0.2989,0.3013,0.3015,0.3016,0.3021,0.3009,0,0,0,0,0,0.3293,0.3276,0.3238,0.3227,0.3215,0.3183,0.3171,0.3153,0.3126,0.3116,0.309,0.3064,0.3041,0.3027,0.3004,0.2986,0.2977,0.298,0.2982,0.2984,0.2983,0.2969,0.297,0.2963,0.2963,0.2963,0,0,0.3304,0.3278,0.3269,0.3233,0.3212,0.3193,0.3175,0.3157,0.3142,0.3113,0.309,0.307,0.3038,0.3018,0.3007,0.3002,0.2982,0.2984,0.2986,0.2984,0.297,0.297,0.2971,0.2963,0.2963,0.2963,0,0,0.3314,0.3294,0.3281,0.326,0.3228,0.3207,0.3203,0.3167,0.3153,0.3129,0.3106,0.3087,0.305,0.3028,0.3012,0.301,0.2994,0.3004,0.3013,0.3,0.3001,0.3001,0.2999,0.2999,0.3003,0.3003,0.3003,0,0.3332,0.3303,0.3276,0.3258,0.3242,0.3214,0.32,0.3181,0.3143,0.3132,0.3126,0.3076,0.3054,0.3026,0.3026,0.3014,0.3008,0.3008,0.3003,0.3003,0.3003,0.3,0.3,0.3004,0.3004,0.3004,0.3004,0,0.3325,0.3306,0.3299,0.3263,0.3246,0.323,0.3199,0.3184,0.3167,0.3146,0.312,0.3092,0.3062,0.3054,0.3037,0.3023,0.302,0.3009,0.3,0.3005,0.3002,0.3001,0.3006,0.3006,0.3005,0.3005,0,0,0.3356,0.3304,0.3301,0.3284,0.3246,0.323,0.3211,0.3182,0.3169,0.3143,0.3126,0.3093,0.3082,0.3064,0.3044,0.3033,0.3031,0.3023,0.3022,0.3024,0.3011,0.3019,0.3019,0.302,0.302,0.302,0.3014,0,0.3359,0.3326,0.33,0.3276,0.3256,0.3228,0.3212,0.3186,0.3164,0.3143,0.3119,0.3096,0.3084,0.3072,0.306,0.3034,0.3028,0.3034,0.3002,0.3001,0.301,0.3018,0.3027,0.3022,0.3012,0.3012,0.3012,0,0.3359,0.3334,0.3308,0.327,0.3261,0.3247,0.3216,0.3197,0.3166,0.3151,0.313,0.3109,0.3086,0.3078,0.3045,0.305,0.3035,0.302,0.3019,0.3014,0.3007,0.3012,0.3021,0.302,0.301,0.301,0.3011,0,0.3382,0.3342,0.3321,0.3307,0.3262,0.3252,0.3233,0.3202,0.3185,0.3158,0.3146,0.3117,0.3101,0.3077,0.3048,0.3046,0.3018,0.3008,0.3003,0.3004,0.2998,0.2999,0.3004,0.299,0.299,0.299,0.299,0,0.3388,0.3373,0.333,0.3317,0.3298,0.3267,0.3249,0.3227,0.3199,0.318,0.3154,0.3136,0.3099,0.3076,0.3053,0.3028,0.3022,0.3008,0.3001,0.3009,0.3011,0.2999,0.2998,0.299,0.299,0.299,0.299,0,0.3411,0.3382,0.3356,0.3316,0.3305,0.3293,0.3257,0.3242,0.3219,0.3194,0.3187,0.315,0.3121,0.309,0.3051,0.3035,0.3011,0.3003,0.3022,0.3018,0.3015,0.3015,0.3011,0.3008,0.2998,0.2998,0.2998,0,0.3417,0.3404,0.3362,0.3347,0.3329,0.3306,0.3288,0.3256,0.3238,0.3201,0.319,0.3159,0.3133,0.3089,0.3057,0.3027,0.3017,0.3017,0.3012,0.302,0.3015,0.3016,0.3014,0.3019,0.3019,0.302,0.302,0,0.3429,0.3415,0.3391,0.3361,0.334,0.3315,0.3289,0.3278,0.324,0.3222,0.3192,0.3172,0.3131,0.3101,0.3066,0.3044,0.3025,0.3022,0.3018,0.3026,0.3037,0.303,0.3025,0.3022,0.3022,0.3021,0.3021,0.3021,0.3442,0.3429,0.3396,0.337,0.3346,0.3322,0.3305,0.3279,0.3255,0.3219,0.3202,0.3172,0.3138,0.309,0.3068,0.3043,0.3037,0.3034,0.3032,0.3032,0.3033,0.3042,0.3037,0.3037,0.3037,0.3037,0.3037,0,0.3452,0.3429,0.3405,0.3369,0.3347,0.3331,0.3301,0.3283,0.3258,0.3228,0.3203,0.3168,0.3137,0.3103,0.307,0.3056,0.3046,0.3048,0.3049,0.3044,0.3041,0.3046,0.3057,0.3057,0.3057,0.3057,0.3057,0.3057,0.3454,0.3431,0.3412,0.3375,0.3352,0.3323,0.3307,0.3283,0.3259,0.3222,0.3196,0.3174,0.3142,0.3106,0.3076,0.3067,0.3055,0.306,0.3047,0.3046,0.3044,0.3043,0.3047,0.3058,0.3058,0.3052,0.3052,0.3052]},{"header":{"parameterUnit":"m.s-1","parameterCategory":1,"la1":30.2991,"la2":30.254,"lo1":-89.0895,"lo2":-89.0444,"dy":0.0017,"dx":0.0017,"nx":28,"ny":28,"refTime":"2024-05-05T21:00:00:Z","depth":0,"parameterNumber":3,"parameterNumberName":"V-component_of_WINDS"},"data":[0,0,0,0,0,0,0,0,0,0,0,0,0,0,0,0,0,0,0,0,0,0,0,0,0,0,0,0,0,0,0,0,0,0,0,0,0,0,0,0,0,0,0,0,0,0,0,0,0,0,0,0,0,0,0,0,0,0,5.8651,5.8651,0,5.8705,5.8706,5.8706,5.8656,5.8654,5.8652,5.865,5.8701,5.8704,5.8708,0,0,0,0,0,0,0,0,0,0,0,0,0,5.8497,5.85,5.8651,5.8651,5.8652,5.8705,5.8706,5.8706,5.8657,5.8654,5.8652,5.865,5.87,5.8704,5.8708,0,0,0,0,0,0,0,0,0,0,0,0,0,5.8559,5.8501,5.865,5.8634,5.8633,5.8705,5.8706,5.8707,5.8657,5.8654,5.8651,5.8648,5.8699,5.8704,5.8708,5.8798,0,0,5.8723,5.8725,0,0,0,0,0,0,0,0,5.8555,5.8565,5.8635,5.8635,5.8634,5.8671,5.867,5.8737,5.8658,5.8648,5.865,5.8647,5.8693,5.8698,5.8715,5.8801,5.8803,5.8724,5.8726,5.8729,5.873,0,0,0,0,0,0,0,5.8551,5.8562,5.8672,5.8636,5.8636,5.8621,5.8627,5.8683,5.8686,5.8648,5.8645,5.8652,5.8692,5.871,5.8716,5.8804,5.8723,5.8728,5.8731,5.8733,5.8963,5.8966,0,0,0,0,0,0,5.855,5.8559,5.867,5.8674,5.8587,5.8627,5.8633,5.8662,5.8686,5.8687,5.8655,5.865,5.8704,5.871,5.8717,5.8823,5.8729,5.8733,5.8736,5.896,5.8964,5.8967,0,0,0,0,0,0,5.8546,5.856,5.8668,5.8615,5.8628,5.8632,5.8666,5.8665,5.8683,5.8691,5.8691,5.8673,5.8702,5.8711,5.8778,5.8824,5.8735,5.874,5.8956,5.8961,5.8966,5.9035,0,0,0,0,0,0,5.8542,5.8559,5.8595,5.8617,5.8631,5.873,5.8669,5.8668,5.8692,5.8686,5.8708,5.8709,5.87,5.8771,5.8783,5.8829,5.8743,5.8952,5.8958,5.8964,5.9029,5.9042,5.9053,0,0,0,0,0,5.8537,5.8612,5.8597,5.8611,5.8676,5.8733,5.8741,5.8731,5.8696,5.8731,5.8735,5.8708,5.8817,5.8779,5.8792,5.884,5.8949,5.8957,5.8964,5.9024,5.9039,5.9053,0,0,0,0,0,0,5.8594,5.8614,5.8598,5.8683,5.8707,5.8725,5.8768,5.8748,5.8781,5.8774,5.8759,5.8764,5.8835,5.8844,5.8801,5.8927,5.8877,5.8887,5.8918,5.8934,5.8945,5.8941,5.8747,0,0,0,0,0,5.8617,5.8663,5.8678,5.8751,5.8764,5.8764,5.8788,5.8779,5.8802,5.8811,5.8821,5.8843,5.8882,5.8908,5.8945,5.903,5.9033,5.9069,5.9081,5.9091,5.91,5.9143,5.9159,5.8991,5.8991,5.8991,0,0,5.8664,5.8681,5.8711,5.8763,5.878,5.8826,5.8773,5.8824,5.8858,5.8819,5.8883,5.8891,5.8915,5.8991,5.9025,5.9001,5.9147,5.91,5.9108,5.9111,5.9152,5.9168,5.9182,5.8996,5.8995,5.8995,0,0,5.8773,5.8791,5.8853,5.8872,5.8899,5.8899,5.8913,5.8934,5.8938,5.9003,5.8974,5.9013,5.9081,5.9099,5.9117,5.9231,5.9206,5.9243,5.9306,5.9348,5.9362,5.9373,5.9412,5.9427,5.9252,5.9252,5.9252,0,5.8827,5.8898,5.8887,5.8941,5.8963,5.8931,5.8992,5.901,5.9048,5.9063,5.9035,5.9119,5.9133,5.9212,5.924,5.9256,5.9271,5.924,5.9361,5.9372,5.9383,5.942,5.9435,5.9256,5.9256,5.9255,5.9255,0,5.8962,5.9011,5.9058,5.9096,5.9124,5.9181,5.9177,5.9206,5.9193,5.9195,5.926,5.9276,5.9314,5.9332,5.932,5.9409,5.9393,5.9364,5.9313,5.9403,5.9438,5.9452,5.9262,5.9261,5.9259,5.9258,0,0,5.9109,5.914,5.9157,5.9173,5.9201,5.9237,5.9292,5.9331,5.9355,5.9381,5.9425,5.9483,5.9456,5.9476,5.9465,5.9503,5.9591,5.9469,5.9469,5.949,5.9688,5.9709,5.9726,5.9575,5.9577,5.9579,5.9685,0,5.9218,5.9315,5.9306,5.9397,5.9441,5.941,5.9457,5.9478,5.9481,5.9517,5.9519,5.956,5.9521,5.9533,5.9569,5.9573,5.963,5.9565,5.9613,5.9615,5.9608,5.9744,5.9767,5.9867,5.9699,5.9701,5.9703,0,5.9358,5.9391,5.9487,5.9506,5.9524,5.9567,5.96,5.9636,5.9657,5.9657,5.9679,5.9661,5.9714,5.9663,5.9734,5.969,5.9709,5.9714,5.9717,5.9721,5.9664,5.975,5.9898,5.9913,5.9724,5.9723,5.9721,0,5.9454,5.9522,5.9587,5.9602,5.9626,5.9657,5.9668,5.9687,5.971,5.9739,5.9754,5.9788,5.9807,5.9833,5.9824,5.9788,5.9896,5.9845,5.9895,5.9896,5.9919,5.9917,6.0071,5.9933,5.9933,5.9933,5.9932,0,5.9576,5.9636,5.9631,5.9671,5.9735,5.9724,5.9787,5.9794,5.9811,5.9851,5.9826,5.9863,5.985,5.9885,5.9878,5.9937,5.9946,5.9945,5.9943,5.9947,5.9947,5.9959,5.9951,5.9937,5.9936,5.9935,5.9934,0,5.9695,5.9694,5.9763,5.978,5.9786,5.9833,5.9846,5.9883,5.9883,5.9933,5.9944,5.9945,5.9985,5.9979,6.0024,6.0019,6.0092,6.0082,6.0086,6.0083,6.0133,6.0128,6.0299,6.032,6.0169,6.0171,6.0172,0,5.9772,5.9817,5.984,5.9865,5.9878,5.9919,5.9943,5.9933,5.9958,5.9985,6.0018,6.0057,6.0087,6.0153,6.0156,6.019,6.0179,6.0236,6.0184,6.0186,6.0178,6.0175,6.0179,6.0247,6.0248,6.025,6.0251,0,5.991,5.9907,5.9943,5.9979,6.0008,6.0035,6.006,6.0082,6.0073,6.0102,6.0144,6.0168,6.0214,6.0251,6.0283,6.0292,6.027,6.0268,6.0281,6.0285,6.0285,6.0285,6.0113,6.0264,6.0262,6.0261,6.0261,6.026,6.0009,6.0047,6.0068,6.0109,6.0126,6.015,6.0185,6.019,6.0225,6.0262,6.0253,6.03,6.0318,6.0358,6.0371,6.0406,6.0385,6.0404,6.0409,6.0413,6.0419,6.0281,6.0412,6.0411,6.0411,6.0411,6.0411,0,6.0144,6.0156,6.0194,6.0229,6.026,6.0238,6.0263,6.0291,6.0333,6.0352,6.0383,6.043,6.0466,6.0472,6.0506,6.0533,6.0523,6.0542,6.0539,6.0541,6.0437,6.0422,6.0549,6.0549,6.0549,6.0549,6.0549,6.0549,6.0218,6.0281,6.028,6.035,6.0361,6.0408,6.0424,6.0444,6.046,6.0514,6.0545,6.0549,6.0562,6.0597,6.0628,6.0629,6.0642,6.0664,6.0661,6.0563,6.0549,6.0536,6.0521,6.0668,6.0668,6.0762,6.0763,6.0764]}]]